This is the latest recevied weather packets stored in our database for station/object YM2KV-13. If no packets are shown the sender has not sent any weather packets the latest 10 day(s).
| Time | Temp. | Humidity | Pressure | Rain* | Wind** | Luminosity | Snow |
|---|---|---|---|---|---|---|---|
| 1777460899 | 18.33° C | 51% | 1030 hPa | - | - | - | - |
| 1777460299 | 18.89° C | 51% | 1030.1 hPa | - | - | - | - |
| 1777459699 | 19.44° C | 49% | 1030 hPa | - | - | - | - |
| 1777459099 | 19.44° C | 49% | 1030.1 hPa | - | - | - | - |
| 1777458499 | 18.89° C | 50% | 1030.2 hPa | - | - | - | - |
| 1777457899 | 18.89° C | 49% | 1030.2 hPa | - | - | - | - |
| 1777457299 | 18.89° C | 50% | 1030.2 hPa | - | - | - | - |
| 1777456699 | 18.33° C | 50% | 1030.1 hPa | - | - | - | - |
| 1777456099 | 18.89° C | 49% | 1030.1 hPa | - | - | - | - |
| 1777455499 | 18.89° C | 50% | 1030.2 hPa | - | - | - | - |
| 1777454899 | 19.44° C | 49% | 1030.2 hPa | - | - | - | - |
| 1777454299 | 18.89° C | 50% | 1030 hPa | - | - | - | - |
| 1777453699 | 18.89° C | 50% | 1030.2 hPa | - | - | - | - |
| 1777453098 | 19.44° C | 50% | 1030.4 hPa | - | - | - | - |
| 1777452499 | 18.33° C | 52% | 1030.4 hPa | - | - | - | - |
| 1777451899 | 18.89° C | 51% | 1030.5 hPa | - | - | - | - |
| 1777451298 | 18.33° C | 52% | 1030.4 hPa | - | - | - | - |
| 1777450698 | 17.78° C | 54% | 1030.4 hPa | - | - | - | - |
| 1777450098 | 18.33° C | 53% | 1030.5 hPa | - | - | - | - |
| 1777449498 | 17.22° C | 53% | 1030.7 hPa | - | - | - | - |
| 1777448299 | 17.22° C | 54% | 1030.5 hPa | - | - | - | - |
| 1777447698 | 15.56° C | 55% | 1030.5 hPa | - | - | - | - |
| 1777447098 | 15° C | 56% | 1030.7 hPa | - | - | - | - |
| 1777446498 | 15.56° C | 58% | 1030.7 hPa | - | - | - | - |
| 1777445898 | 13.33° C | 60% | 1030.6 hPa | - | - | - | - |
* Rain since midnight (hover to see other rain measurements)
** Current wind speed in m/s (hover to see current wind gust speed)